Miscellaneous Local Product
Issued by NWS Hastings, NE

Home | Current Version | Previous Version | Text Only | Print | Product List | Glossary Off
Versions: 1 2 3 4 5 6 7 8 9 10 11 12 13 14 15 16 17 18 19 20 21 22 23 24 25 26 27 28 29 30 31 32 33 34 35 36 37 38 39 40 41 42 43 44 45 46 47 48 49 50

000
AXUS43 KGID 290802
MISGRI

GID CWA HOURLY WEATHER ROUNDUP
NATIONAL WEATHER SERVICE HASTINGS NE
200 AM CST MON DEC 29 2014

NOTE: "FAIR" INDICATES FEW OR NO CLOUDS BELOW 12,000 FEET WITH NO
SIGNIFICANT WEATHER AND/OR OBSTRUCTIONS TO VISIBILITY.

...SOUTH CENTRAL NEBRASKA...

CITY           SKY/WX    TMP DP  RH WIND       PRES   REMARKS
GRAND ISLAND   CLOUDY    18  15  88 NE10      30.19R WCI   6
HASTINGS       CLOUDY    20  17  88 NE10      30.15R WCI   9
KEARNEY        CLOUDY    19  16  86 NE10      30.15R WCI   8
ORD            CLOUDY    18  14  84 MISG      30.18R
YORK           CLOUDY    21  19  93 NE10      30.19S WCI  10
AURORA         CLOUDY    20  18  91 NE8       30.18R WCI  11
LEXINGTON      CLOUDY    19  17  90 NE5       30.13R WCI  13
HOLDREGE       PTCLDY    17  15  90 NE5       30.12R WCI  10
HEBRON         CLOUDY    27  23  86 NE5       30.17S WCI  21

...NEBRASKA PANHANDLE...

CITY           SKY/WX    TMP DP  RH WIND       PRES   REMARKS
CHADRON        LGT SNOW  15  11  83 NE14      30.15R FOG     WCI   0
ALLIANCE       LGT SNOW  20  18  92 N12       30.03R VSB 3/4 WCI   8
SCOTTSBLUFF    LGT SNOW  19  15  84 N12       30.05R FOG     WCI   7
SIDNEY         MOCLDY    11   7  84 NW10      29.98S WCI  -3

...WESTERN AND NORTH CENTRAL NEBRASKA...

CITY           SKY/WX    TMP DP  RH WIND       PRES   REMARKS
VALENTINE      LGT SNOW  16  13  88 NE12      30.20R FOG     WCI   3
AINSWORTH      LGT SNOW  16  14  91 E8        30.19R WCI   5
ONEILL         CLOUDY    16  16  97 NE9       30.23R WCI   5
BROKEN BOW     CLOUDY    19  14  81 NE7       30.14R WCI  10
IMPERIAL       PTCLDY     3  -1  83 N5        30.05R WCI  -6
NORTH PLATTE   CLOUDY    21  16  81 E6        30.10R WCI  13
MCCOOK         CLEAR     11   9  92 NE6       30.08F WCI   1

...EASTERN NEBRASKA...

CITY           SKY/WX    TMP DP  RH WIND       PRES   REMARKS
NORFOLK        CLOUDY    20  16  84 NE9       30.24R WCI   9
SO SIOUX CITY  LGT SNOW  21  16  81 NE8       30.29S WCI  11
TEKAMAH        CLOUDY    20  16  84 N12       30.26S WCI   8
COLUMBUS       MOCLDY    19  12  73 NE10      30.23S WCI   8
ALBION         CLOUDY    18  15  86 NE3       30.21S
OMAHA EPPLEY   PTCLDY    22  19  89 N8        30.25R WCI  12
OFFUTT AFB     PTCLDY    24  21  89 N6        30.22R WCI  17
MILLARD        CLEAR     25  21  86 CALM      30.23R
LINCOLN        CLOUDY    23  20  88 N9        30.23R WCI  13
NEBRASKA CITY  MOCLDY    28  24  86 NE8       30.20R WCI  20
BEATRICE       CLOUDY    28  25  89 NE9       30.17S WCI  19
FALLS CITY     CLOUDY    29  23  78 CALM      30.19S

...NORTHERN KANSAS...

CITY           SKY/WX    TMP DP  RH WIND       PRES   REMARKS
GOODLAND       CLOUDY    10   7  87 CALM      29.99F FOG
HILL CITY      MOCLDY    20  18  92 CALM      30.08S
PHILLIPSBURG   PTCLDY    25  21  86 N5        30.11S WCI  19
BELOIT         CLEAR     23  19  86 CALM      30.14R
HAYS           CLEAR     21  10  63 E6        30.08S WCI  14
RUSSELL        CLEAR     22  18  85 E5        30.09S WCI  16
CONCORDIA      CLEAR     23  19  85 CALM      30.15R
SALINA         CLEAR     24  18  77 SE3       30.15F
TOPEKA         MOCLDY    27  24  89 CALM      30.21R



USA.gov is the U.S. government's official web portal to all federal, state and local government web resources and services.